Tracking 28096 objects as of 28-Sep-2023
HD Live streaming from Space Station
objects crossing your sky now

FLOCK 4X 1

Track FLOCK 4X 1 now!
10-day predictions


NORAD ID: 51017
Int'l Code: 2022-002AK
Perigee: 474.0 km
Apogee: 485.4 km
Inclination: 97.4 °
Period: 94.1 minutes
Semi major axis: 6850 km
RCS: Unknown
Launch date: January 13, 2022
Source: United States (US)
Launch site: AIR FORCE EASTERN TEST RANGE (AFETR)
Your satellite tracking list
Your tracking list is empty




NASA's NSSDC Master Catalog

Two Line Element Set (TLE):
1 51017U 22002AK  23270.44916812  .00020007  00000-0  66722-3 0  9994
2 51017  97.4275 338.7956 0008300 224.0545 136.0035 15.31080501 94470
Source of the keplerian elements: AFSPC